Time,TemperatureF,DewpointF,PressureIn,WindDirection,WindDirectionDegrees,WindSpeedMPH,WindSpeedGustMPH,Humidity,HourlyPrecipIn,Conditions,Clouds,dailyrainin,SoftwareType,DateUTC
2013-03-24 00:03:00,45.0,26.0,29.93,NW,325,0.0,4.0,47,0.00,,,0.00,,2013-03-24 04:03:00,
2013-03-24 00:13:00,45.0,26.0,29.93,NW,325,0.0,4.0,47,0.00,,,0.00,,2013-03-24 04:13:00,
2013-03-24 00:23:00,44.0,27.0,29.92,SSW,200,0.0,2.0,50,0.00,,,0.00,,2013-03-24 04:23:00,
2013-03-24 00:33:00,43.0,27.0,29.92,SSW,200,3.0,4.0,53,0.00,,,0.00,,2013-03-24 04:33:00,
2013-03-24 00:43:00,43.0,27.0,29.92,SSW,200,3.0,4.0,53,0.00,,,0.00,,2013-03-24 04:43:00,
2013-03-24 00:53:00,42.0,27.0,29.93,SSW,207,3.0,4.0,54,0.00,,,0.00,,2013-03-24 04:53:00,
2013-03-24 01:02:00,42.0,27.0,29.92,SSW,207,1.0,3.0,56,0.00,,,0.00,,2013-03-24 05:02:00,
2013-03-24 01:13:00,42.0,27.0,29.92,SSW,207,1.0,3.0,56,0.00,,,0.00,,2013-03-24 05:13:00,
2013-03-24 01:23:00,40.0,26.0,29.92,SSW,207,2.0,4.0,58,0.00,,,0.00,,2013-03-24 05:23:00,
2013-03-24 01:32:00,40.0,27.0,29.91,SSW,207,1.0,2.0,60,0.00,,,0.00,,2013-03-24 05:32:00,
2013-03-24 01:43:00,40.0,27.0,29.91,SSW,207,1.0,2.0,60,0.00,,,0.00,,2013-03-24 05:43:00,
2013-03-24 01:52:00,40.0,27.0,29.92,SSW,208,2.0,4.0,60,0.00,,,0.00,,2013-03-24 05:52:00,
2013-03-24 02:02:00,39.0,27.0,29.91,SSW,202,0.0,2.0,61,0.00,,,0.00,,2013-03-24 06:02:00,
2013-03-24 02:12:00,39.0,27.0,29.91,SSW,202,0.0,2.0,61,0.00,,,0.00,,2013-03-24 06:12:00,
2013-03-24 02:22:00,38.0,26.0,29.91,SSW,202,0.0,1.0,62,0.00,,,0.00,,2013-03-24 06:22:00,
2013-03-24 02:32:00,38.0,27.0,29.92,SSW,204,2.0,4.0,64,0.00,,,0.00,,2013-03-24 06:32:00,
2013-03-24 02:42:00,38.0,27.0,29.92,SSW,204,2.0,4.0,64,0.00,,,0.00,,2013-03-24 06:42:00,
2013-03-24 02:52:00,38.0,27.0,29.92,SSW,205,0.0,4.0,65,0.00,,,0.00,,2013-03-24 06:52:00,
2013-03-24 03:02:00,38.0,27.0,29.93,SSW,203,0.0,4.0,65,0.00,,,0.00,,2013-03-24 07:02:00,
2013-03-24 03:12:00,38.0,27.0,29.93,SSW,203,0.0,4.0,65,0.00,,,0.00,,2013-03-24 07:12:00,
2013-03-24 03:22:00,38.0,27.0,29.93,SSW,205,0.0,3.0,65,0.00,,,0.00,,2013-03-24 07:22:00,
2013-03-24 03:32:00,38.0,27.0,29.96,SSW,206,0.0,3.0,65,0.00,,,0.00,,2013-03-24 07:32:00,
2013-03-24 03:42:00,38.0,27.0,29.96,SSW,206,0.0,3.0,65,0.00,,,0.00,,2013-03-24 07:42:00,
2013-03-24 03:52:00,38.0,27.0,29.95,NNE,25,1.0,5.0,65,0.00,,,0.00,,2013-03-24 07:52:00,
2013-03-24 04:03:00,38.0,28.0,29.96,SSW,200,2.0,4.0,66,0.00,,,0.00,,2013-03-24 08:03:00,
2013-03-24 04:12:00,38.0,28.0,29.96,SSW,200,2.0,4.0,66,0.00,,,0.00,,2013-03-24 08:12:00,
2013-03-24 04:22:00,39.0,26.0,29.93,NE,40,1.0,4.0,60,0.00,,,0.00,,2013-03-24 08:22:00,
2013-03-24 04:32:00,40.0,26.0,29.93,ENE,69,4.0,5.0,58,0.00,,,0.00,,2013-03-24 08:32:00,
2013-03-24 04:42:00,40.0,26.0,29.93,ENE,69,4.0,5.0,58,0.00,,,0.00,,2013-03-24 08:42:00,
2013-03-24 04:52:00,40.0,27.0,29.92,North,11,0.0,2.0,60,0.00,,,0.00,,2013-03-24 08:52:00,
2013-03-24 05:02:00,39.0,27.0,29.92,North,5,0.0,2.0,61,0.00,,,0.00,,2013-03-24 09:02:00,
2013-03-24 05:12:00,39.0,27.0,29.92,North,5,0.0,2.0,61,0.00,,,0.00,,2013-03-24 09:12:00,
2013-03-24 05:22:00,40.0,25.0,29.89,ESE,102,5.0,7.0,54,0.00,,,0.00,,2013-03-24 09:22:00,
2013-03-24 05:33:00,42.0,23.0,29.89,SSE,151,4.0,11.0,47,0.00,,,0.00,,2013-03-24 09:33:00,
2013-03-24 05:42:00,42.0,23.0,29.89,SSE,151,4.0,11.0,47,0.00,,,0.00,,2013-03-24 09:42:00,
2013-03-24 05:53:00,42.0,22.0,29.88,ESE,118,8.0,13.0,45,0.00,,,0.00,,2013-03-24 09:53:00,
2013-03-24 06:03:00,42.0,22.0,29.88,ESE,102,6.0,12.0,44,0.00,,,0.00,,2013-03-24 10:03:00,
2013-03-24 06:12:00,42.0,22.0,29.88,ESE,102,6.0,12.0,44,0.00,,,0.00,,2013-03-24 10:12:00,
2013-03-24 06:23:00,42.0,22.0,29.89,East,86,5.0,11.0,44,0.00,,,0.00,,2013-03-24 10:23:00,
2013-03-24 06:33:00,42.0,22.0,29.88,ESE,104,6.0,15.0,44,0.00,,,0.00,,2013-03-24 10:33:00,
2013-03-24 06:42:00,42.0,22.0,29.88,ESE,104,6.0,15.0,44,0.00,,,0.00,,2013-03-24 10:42:00,
2013-03-24 06:52:00,42.0,22.0,29.88,East,86,5.0,12.0,44,0.00,,,0.00,,2013-03-24 10:52:00,
2013-03-24 07:03:00,42.0,22.0,29.89,ESE,115,8.0,15.0,44,0.00,,,0.00,,2013-03-24 11:03:00,
2013-03-24 07:12:00,42.0,22.0,29.89,ESE,115,8.0,15.0,44,0.00,,,0.00,,2013-03-24 11:12:00,
2013-03-24 07:22:00,42.0,22.0,29.90,East,101,6.0,11.0,45,0.00,,,0.00,,2013-03-24 11:22:00,
2013-03-24 07:33:00,42.0,22.0,29.90,ENE,64,6.0,15.0,45,0.00,,,0.00,,2013-03-24 11:33:00,
2013-03-24 07:42:00,42.0,22.0,29.90,ENE,64,6.0,15.0,45,0.00,,,0.00,,2013-03-24 11:42:00,
2013-03-24 07:52:00,42.0,22.0,29.89,ESE,121,5.0,9.0,45,0.00,,,0.00,,2013-03-24 11:52:00,
2013-03-24 08:03:00,41.0,22.0,29.88,ESE,113,5.0,9.0,46,0.00,,,0.00,,2013-03-24 12:03:00,
2013-03-24 08:12:00,41.0,22.0,29.88,ESE,113,5.0,9.0,46,0.00,,,0.00,,2013-03-24 12:12:00,
2013-03-24 08:22:00,41.0,22.0,29.86,ESE,112,3.0,11.0,47,0.00,,,0.00,,2013-03-24 12:22:00,
2013-03-24 08:32:00,41.0,24.0,29.86,East,94,2.0,7.0,50,0.00,,,0.00,,2013-03-24 12:32:00,
2013-03-24 08:42:00,41.0,24.0,29.86,East,94,2.0,7.0,50,0.00,,,0.00,,2013-03-24 12:42:00,
2013-03-24 08:52:00,41.0,24.0,29.87,SE,138,6.0,6.0,51,0.00,,,0.00,,2013-03-24 12:52:00,
2013-03-24 09:02:00,40.0,25.0,29.87,SE,137,4.0,7.0,54,0.00,,,0.00,,2013-03-24 13:02:00,
2013-03-24 09:13:00,40.0,25.0,29.87,SE,137,4.0,7.0,54,0.00,,,0.00,,2013-03-24 13:13:00,
2013-03-24 09:22:00,39.0,25.0,29.87,ESE,115,3.0,8.0,58,0.00,,,0.00,,2013-03-24 13:22:00,
2013-03-24 09:32:00,38.0,27.0,29.87,SE,146,3.0,6.0,63,0.00,,,0.00,,2013-03-24 13:32:00,
2013-03-24 09:42:00,38.0,27.0,29.87,SE,146,3.0,6.0,63,0.00,,,0.00,,2013-03-24 13:42:00,
2013-03-24 09:52:00,38.0,28.0,29.87,SSE,150,1.0,5.0,66,0.00,,,0.00,,2013-03-24 13:52:00,
2013-03-24 10:02:00,37.0,28.0,29.88,SSE,156,3.0,6.0,70,0.00,,,0.00,,2013-03-24 14:02:00,
2013-03-24 10:12:00,37.0,28.0,29.88,SSE,156,3.0,6.0,70,0.00,,,0.00,,2013-03-24 14:12:00,
2013-03-24 10:22:00,37.0,29.0,29.88,SSE,165,5.0,7.0,72,0.00,,,0.00,,2013-03-24 14:22:00,
2013-03-24 10:32:00,36.0,30.0,29.87,SE,132,2.0,7.0,78,0.01,,,0.01,,2013-03-24 14:32:00,
2013-03-24 10:42:00,36.0,30.0,29.87,SE,132,2.0,7.0,78,0.01,,,0.01,,2013-03-24 14:42:00,
2013-03-24 10:53:00,34.0,30.0,29.85,ESE,118,3.0,6.0,85,0.01,,,0.01,,2013-03-24 14:53:00,
2013-03-24 11:02:00,33.0,30.0,29.84,East,81,2.0,5.0,88,0.01,,,0.01,,2013-03-24 15:02:00,
2013-03-24 11:12:00,33.0,30.0,29.84,East,81,2.0,5.0,88,0.01,,,0.01,,2013-03-24 15:12:00,
2013-03-24 11:22:00,34.0,31.0,29.84,ENE,75,0.0,3.0,89,0.01,,,0.01,,2013-03-24 15:22:00,
2013-03-24 11:33:00,34.0,31.0,29.85,East,84,0.0,3.0,89,0.00,,,0.01,,2013-03-24 15:33:00,
2013-03-24 11:43:00,34.0,31.0,29.85,East,84,0.0,3.0,89,0.00,,,0.01,,2013-03-24 15:43:00,
2013-03-24 11:53:00,33.0,30.0,29.84,East,101,2.0,5.0,90,0.00,,,0.01,,2013-03-24 15:53:00,
2013-03-24 12:03:00,33.0,31.0,29.82,East,85,2.0,4.0,91,0.00,,,0.01,,2013-03-24 16:03:00,
2013-03-24 12:13:00,33.0,31.0,29.82,East,85,2.0,4.0,91,0.00,,,0.01,,2013-03-24 16:13:00,
2013-03-24 12:23:00,33.0,31.0,29.81,East,86,1.0,4.0,92,0.00,,,0.01,,2013-03-24 16:23:00,
2013-03-24 12:33:00,33.0,31.0,29.80,East,87,1.0,4.0,92,0.01,,,0.02,,2013-03-24 16:33:00,
2013-03-24 12:42:00,33.0,31.0,29.80,East,87,1.0,4.0,92,0.01,,,0.02,,2013-03-24 16:42:00,
2013-03-24 12:52:00,33.0,31.0,29.80,SE,130,3.0,7.0,92,0.02,,,0.03,,2013-03-24 16:52:00,
2013-03-24 13:02:00,33.0,31.0,29.79,East,86,1.0,5.0,92,0.03,,,0.04,,2013-03-24 17:02:00,
2013-03-24 13:12:00,33.0,31.0,29.79,East,86,1.0,5.0,92,0.03,,,0.04,,2013-03-24 17:12:00,
2013-03-24 13:23:00,33.0,31.0,29.78,SSE,153,3.0,6.0,92,0.04,,,0.05,,2013-03-24 17:23:00,
2013-03-24 13:33:00,33.0,31.0,29.77,SE,134,4.0,6.0,92,0.03,,,0.05,,2013-03-24 17:33:00,
2013-03-24 13:42:00,33.0,31.0,29.77,SE,134,4.0,6.0,92,0.03,,,0.05,,2013-03-24 17:42:00,
2013-03-24 13:53:00,33.0,31.0,29.75,ENE,69,2.0,5.0,92,0.04,,,0.07,,2013-03-24 17:53:00,
2013-03-24 14:03:00,33.0,31.0,29.76,East,98,1.0,4.0,92,0.03,,,0.07,,2013-03-24 18:03:00,
2013-03-24 14:12:00,33.0,31.0,29.76,East,98,1.0,4.0,92,0.03,,,0.07,,2013-03-24 18:12:00,
2013-03-24 14:22:00,33.0,31.0,29.75,East,94,2.0,4.0,92,0.03,,,0.08,,2013-03-24 18:22:00,
2013-03-24 14:33:00,33.0,31.0,29.74,ESE,117,2.0,5.0,92,0.04,,,0.09,,2013-03-24 18:33:00,
2013-03-24 14:43:00,33.0,31.0,29.74,ESE,117,2.0,5.0,92,0.04,,,0.09,,2013-03-24 18:43:00,
2013-03-24 14:52:00,33.0,31.0,29.72,ESE,103,4.0,7.0,93,0.03,,,0.10,,2013-03-24 18:52:00,
2013-03-24 15:02:00,33.0,31.0,29.72,ESE,109,4.0,5.0,93,0.04,,,0.11,,2013-03-24 19:02:00,
2013-03-24 15:12:00,33.0,31.0,29.72,ESE,109,4.0,5.0,93,0.04,,,0.11,,2013-03-24 19:12:00,
2013-03-24 15:22:00,33.0,31.0,29.73,East,101,0.0,2.0,93,0.03,,,0.11,,2013-03-24 19:22:00,
2013-03-24 15:32:00,33.0,31.0,29.73,ESE,102,1.0,4.0,92,0.03,,,0.12,,2013-03-24 19:32:00,
2013-03-24 15:43:00,33.0,31.0,29.73,ESE,102,1.0,4.0,92,0.03,,,0.12,,2013-03-24 19:43:00,
2013-03-24 15:53:00,33.0,31.0,29.72,East,100,2.0,5.0,92,0.03,,,0.13,,2013-03-24 19:53:00,
2013-03-24 16:03:00,33.0,31.0,29.72,East,101,0.0,4.0,93,0.02,,,0.13,,2013-03-24 20:03:00,
2013-03-24 16:12:00,33.0,31.0,29.72,East,101,0.0,4.0,93,0.02,,,0.13,,2013-03-24 20:12:00,
2013-03-24 16:22:00,33.0,31.0,29.69,East,96,2.0,4.0,93,0.02,,,0.13,,2013-03-24 20:22:00,
2013-03-24 16:32:00,33.0,31.0,29.68,East,95,1.0,2.0,94,0.01,,,0.13,,2013-03-24 20:32:00,
2013-03-24 16:42:00,33.0,31.0,29.68,East,95,1.0,2.0,94,0.01,,,0.13,,2013-03-24 20:42:00,
2013-03-24 16:53:00,33.0,31.0,29.68,East,95,0.0,1.0,94,0.01,,,0.14,,2013-03-24 20:53:00,
2013-03-24 17:02:00,33.0,31.0,29.66,East,94,0.0,0.0,94,0.01,,,0.14,,2013-03-24 21:02:00,
2013-03-24 17:12:00,33.0,31.0,29.66,East,94,0.0,0.0,94,0.01,,,0.14,,2013-03-24 21:12:00,
2013-03-24 17:22:00,33.0,31.0,29.66,East,94,0.0,2.0,94,0.01,,,0.14,,2013-03-24 21:22:00,
2013-03-24 17:33:00,34.0,32.0,29.66,East,94,0.0,1.0,94,0.02,,,0.15,,2013-03-24 21:33:00,
2013-03-24 17:43:00,34.0,32.0,29.66,East,94,0.0,1.0,94,0.02,,,0.15,,2013-03-24 21:43:00,
2013-03-24 17:53:00,34.0,32.0,29.66,East,94,0.0,0.0,94,0.01,,,0.15,,2013-03-24 21:53:00,
2013-03-24 18:03:00,34.0,32.0,29.65,East,93,0.0,2.0,93,0.01,,,0.15,,2013-03-24 22:03:00,
2013-03-24 18:13:00,34.0,32.0,29.65,East,93,0.0,2.0,93,0.01,,,0.15,,2013-03-24 22:13:00,
2013-03-24 18:23:00,33.0,31.0,29.64,East,81,1.0,3.0,93,0.02,,,0.16,,2013-03-24 22:23:00,
2013-03-24 18:33:00,33.0,31.0,29.64,ENE,67,0.0,2.0,93,0.01,,,0.16,,2013-03-24 22:33:00,
2013-03-24 18:43:00,33.0,31.0,29.64,ENE,67,0.0,2.0,93,0.01,,,0.16,,2013-03-24 22:43:00,
2013-03-24 18:53:00,33.0,31.0,29.64,ENE,67,0.0,2.0,93,0.02,,,0.17,,2013-03-24 22:53:00,
2013-03-24 19:03:00,33.0,31.0,29.63,ENE,67,0.0,1.0,93,0.02,,,0.17,,2013-03-24 23:03:00,
2013-03-24 19:12:00,33.0,31.0,29.63,ENE,67,0.0,1.0,93,0.02,,,0.17,,2013-03-24 23:12:00,
2013-03-24 19:22:00,34.0,32.0,29.63,ENE,69,1.0,3.0,93,0.01,,,0.17,,2013-03-24 23:22:00,
2013-03-24 19:32:00,34.0,32.0,29.62,East,94,4.0,6.0,92,0.01,,,0.17,,2013-03-24 23:32:00,
2013-03-24 19:42:00,34.0,32.0,29.62,East,94,4.0,6.0,92,0.01,,,0.17,,2013-03-24 23:42:00,
2013-03-24 19:53:00,34.0,32.0,29.64,SSE,150,4.0,6.0,91,0.01,,,0.18,,2013-03-24 23:53:00,
2013-03-24 20:02:00,34.0,31.0,29.65,SSE,148,5.0,9.0,90,0.01,,,0.18,,2013-03-25 00:02:00,
2013-03-24 20:12:00,34.0,31.0,29.65,SSE,148,5.0,9.0,90,0.01,,,0.18,,2013-03-25 00:12:00,
2013-03-24 20:22:00,34.0,31.0,29.66,SSE,151,4.0,7.0,90,0.02,,,0.19,,2013-03-25 00:22:00,
2013-03-24 20:32:00,34.0,31.0,29.64,SE,146,5.0,7.0,89,0.02,,,0.19,,2013-03-25 00:32:00,
2013-03-24 20:42:00,34.0,31.0,29.64,SE,146,5.0,7.0,89,0.02,,,0.19,,2013-03-25 00:42:00,
2013-03-24 20:53:00,34.0,31.0,29.65,SSE,150,4.0,8.0,89,0.01,,,0.19,,2013-03-25 00:53:00,
2013-03-24 21:02:00,34.0,31.0,29.65,ESE,103,2.0,9.0,90,0.01,,,0.19,,2013-03-25 01:02:00,
2013-03-24 21:12:00,34.0,31.0,29.65,ESE,103,2.0,9.0,90,0.01,,,0.19,,2013-03-25 01:12:00,
2013-03-24 21:22:00,33.0,30.0,29.65,SE,140,5.0,6.0,90,0.00,,,0.19,,2013-03-25 01:22:00,
2013-03-24 21:32:00,33.0,31.0,29.65,SE,129,6.0,9.0,91,0.01,,,0.20,,2013-03-25 01:32:00,
2013-03-24 21:42:00,33.0,31.0,29.65,SE,129,6.0,9.0,91,0.01,,,0.20,,2013-03-25 01:42:00,
2013-03-24 21:53:00,33.0,31.0,29.65,ESE,123,5.0,13.0,91,0.01,,,0.20,,2013-03-25 01:53:00,
2013-03-24 22:02:00,32.0,30.0,29.65,SSE,149,6.0,11.0,92,0.01,,,0.20,,2013-03-25 02:02:00,
2013-03-24 22:12:00,32.0,30.0,29.65,SSE,149,6.0,11.0,92,0.01,,,0.20,,2013-03-25 02:12:00,
2013-03-24 22:22:00,32.0,30.0,29.64,SE,140,5.0,11.0,92,0.01,,,0.20,,2013-03-25 02:22:00,
2013-03-24 22:33:00,32.0,30.0,29.63,East,92,5.0,11.0,92,0.00,,,0.20,,2013-03-25 02:33:00,
2013-03-24 22:42:00,32.0,30.0,29.63,East,92,5.0,11.0,92,0.00,,,0.20,,2013-03-25 02:42:00,
2013-03-24 22:52:00,32.0,30.0,29.62,East,93,3.0,9.0,92,0.01,,,0.21,,2013-03-25 02:52:00,
2013-03-24 23:02:00,32.0,30.0,29.61,East,101,4.0,9.0,92,0.01,,,0.21,,2013-03-25 03:02:00,
2013-03-24 23:13:00,32.0,30.0,29.61,East,101,4.0,9.0,92,0.01,,,0.21,,2013-03-25 03:13:00,
2013-03-24 23:23:00,32.0,30.0,29.60,ESE,104,3.0,7.0,92,0.01,,,0.21,,2013-03-25 03:23:00,
2013-03-24 23:33:00,32.0,30.0,29.60,ESE,105,3.0,7.0,92,0.01,,,0.21,,2013-03-25 03:33:00,
2013-03-24 23:43:00,32.0,30.0,29.60,East,94,5.0,9.0,92,0.00,,,0.21,,2013-03-25 03:43:00,
2013-03-24 23:53:00,32.0,30.0,29.60,East,94,5.0,9.0,92,0.00,,,0.21,,2013-03-25 03:53:00,